This demonstration page uses our WeatherBlox Daily Observations layout. Learn more.

Left ArrowRight Arrow

Hourly Observations for May 6, 2020

Temp ( °F °C ) Dew Point ( °F °C ) Humidity (%) Winds ( mph kmh ) Pressure ( in mb ) Visibility ( mi km ) Precip ( " mm )
12:54 am 00:54 Clear 44 6.7 39 3.9 83 83 NNW 6 9 30.21 1023 10 16.0934 0 0
1:54 am 01:54 Clear 45 7.2 39 3.9 80 80 NNW 5 7 30.22 1023 10 16.0934 0 0
2:54 am 02:54 Clear 45 7.2 39 3.9 80 80 W 5 7 30.23 1024 10 16.0934 0 0
3:54 am 03:54 Mostly Clear 44 6.7 38 3.3 79 79 NW 3 6 30.25 1025 10 16.0934 0 0
4:54 am 04:54 Partly Cloudy 43 6.1 38 3.3 82 82 Calm 30.26 1025 10 16.0934 0 0
5:54 am 05:54 Cloudy 45 7.2 40 4.4 83 83 WNW 7 11 30.27 1025 10 16.0934 0 0
6:54 am 06:54 Mostly Cloudy 45 7.2 40 4.4 83 83 N 7 11 30.28 1025 10 16.0934 0 0
7:54 am 07:54 Sunny 50 10 41 5 71 71 NNW 16 26 30.29 1026 10 16.0934 0 0
8:54 am 08:54 Sunny 52 11.1 40 4.4 64 64 N 23 37 30.29 1026 10 16.0934 0 0
9:41 am 09:41 Mostly Cloudy 54 12.2 39 3.9 57 57 N 16 26 30.31 1026 10 16.0934 0 0
9:54 am 09:54 Partly Cloudy 54 12.2 39 3.9 57 57 NNW 18 30 30.31 1026 10 16.0934 0 0
10:54 am 10:54 Mostly Cloudy 55 12.8 39 3.9 55 55 N 15 24 30.31 1027 10 16.0934 0 0
11:54 am 11:54 Cloudy 55 12.8 39 3.9 55 55 NW 10 17 30.32 1027 10 16.0934 0 0
12:54 pm 12:54 Cloudy 57 13.9 38 3.3 49 49 NNW 12 19 30.32 1027 10 16.0934 0 0
1:54 pm 13:54 Cloudy 57 13.9 39 3.9 51 51 N 9 15 30.3 1026 10 16.0934 0 0
2:54 pm 14:54 Mostly Cloudy 60 15.6 39 3.9 46 46 N 9 15 30.28 1025 10 16.0934 0 0
3:54 pm 15:54 Mostly Cloudy 60 15.6 37 2.8 42 42 NNW 12 19 30.26 1025 10 16.0934 0 0
4:54 pm 16:54 Cloudy 62 16.7 37 2.8 40 40 NW 12 19 30.25 1024 10 16.0934 0 0
5:54 pm 17:54 Sunny 60 15.6 38 3.3 44 44 N 12 19 30.24 1024 10 16.0934 0 0
6:54 pm 18:54 Partly Cloudy 59 15 37 2.8 44 44 N 8 13 30.23 1024 10 16.0934 0 0
7:54 pm 19:54 Mostly Sunny 59 15 36 2.2 42 42 NNW 9 15 30.21 1023 10 16.0934 0 0
8:54 pm 20:54 Clear 53 11.7 36 2.2 52 52 NW 3 6 30.22 1024 10 16.0934 0 0
9:54 pm 21:54 Clear 52 11.1 38 3.3 59 59 WNW 3 6 30.24 1024 10 16.0934 0 0
10:54 pm 22:54 Clear 43 6.1 35 1.7 74 74 Calm 30.24 1024 10 16.0934 0 0
11:54 pm 23:54 Clear 44 6.7 36 2.2 73 73 Calm 30.23 1024 10 16.0934 0 0

Powered by AerisWeather